Change the Weather History Date:

Saturday, April 13, 2013

  Actual Average Record
Temperature  
Mean Temperature 27 °F -  
Max Temperature 30 °F 46 °F 73 °F (1998)
Min Temperature 24 °F 29 °F 10 °F (2008)
Degree Days  
Heating Degree Days 38    
Moisture  
Dew Point 20 °F    
Average Humidity 75    
Maximum Humidity 86    
Minimum Humidity 55    
Precipitation  
Precipitation 0.05 in - - ()
Sea Level Pressure  
Sea Level Pressure 29.76 in    
Wind  
Wind Speed 6 mph (NW)    
Max Wind Speed 18 mph    
Max Gust Speed 18 mph    
Visibility 5 miles    
Events      
Averages and records for this station are not official NWS values.
T = Trace of Precipitation, MM = Missing Value Source: NWS Daily Summary

Daily Weather History Graph

Daily Weather History Graph

Search for Another Location

Airport or City:

Trip Planner

Search our weather history database for the weather conditions in past years. The results will help you decide how hot, cold, wet, or windy it might be!

Date:

Astronomy

Apr. 13, 2013 Rise Set
Actual Time 6:16 AM CDT 7:46 PM CDT
Civil Twilight 5:45 AM CDT 8:17 PM CDT
Nautical Twilight 5:07 AM CDT 8:55 PM CDT
Astronomical Twilight 4:26 AM CDT 9:37 PM CDT
Moon 7:58 AM CDT (4/13) 11:20 PM CDT (4/13)
Length of Visible Light 14h 32m
Length of Day
13h 29m
Waxing Crescent, 10% of the Moon is Illuminated
Apr 13
Waxing Crescent
Apr 18
First Quarter
Apr 25
Full
May 2
Last Quarter
May 9
New

Hourly Weather History & Observations

Time (CDT) Temp. Windchill Dew Point Humidity Pressure Visibility Wind Dir Wind Speed Gust Speed Precip Events Conditions
12:15 AM 26.6 °F 22.6 °F 21.2 °F 80% 29.71 in 1.5 mi North 3.5 mph - N/A   Overcast
12:35 AM 26.6 °F 22.6 °F 23.0 °F 86% 29.71 in 2.0 mi North 3.5 mph - N/A   Overcast
12:55 AM 26.6 °F 21.2 °F 21.2 °F 80% 29.71 in 4.0 mi NNW 4.6 mph - N/A   Overcast
1:15 AM 26.6 °F 22.6 °F 21.2 °F 80% 29.71 in 5.0 mi North 3.5 mph - N/A   Overcast
1:35 AM 26.6 °F 22.6 °F 21.2 °F 80% 29.71 in 3.0 mi NNW 3.5 mph - N/A   Overcast
1:55 AM 26.6 °F 22.6 °F 21.2 °F 80% 29.71 in 7.0 mi NNW 3.5 mph - N/A   Overcast
2:15 AM 26.6 °F - 21.2 °F 80% 29.71 in 10.0 mi Calm Calm - N/A   Overcast
2:35 AM 24.8 °F - 21.2 °F 86% 29.71 in 5.0 mi Calm Calm - N/A   Mostly Cloudy
2:55 AM 24.8 °F 20.5 °F 19.4 °F 80% 29.70 in 3.0 mi West 3.5 mph - N/A   Overcast
3:15 AM 26.6 °F 20.0 °F 23.0 °F 86% 29.70 in 1.0 mi NNW 5.8 mph - N/A   Overcast
3:35 AM 26.6 °F 20.0 °F 21.2 °F 80% 29.70 in 4.0 mi WNW 5.8 mph - N/A   Overcast
3:55 AM 26.6 °F 20.0 °F 21.2 °F 80% 29.70 in 1.5 mi WNW 5.8 mph - N/A   Overcast
4:15 AM 26.6 °F 21.2 °F 21.2 °F 80% 29.70 in 1.8 mi WNW 4.6 mph - N/A   Overcast
4:35 AM 26.6 °F 20.0 °F 21.2 °F 80% 29.70 in 1.5 mi NW 5.8 mph - N/A   Overcast
4:55 AM 26.6 °F 21.2 °F 21.2 °F 80% 29.70 in 2.5 mi NNW 4.6 mph - N/A   Overcast
5:15 AM 26.6 °F 20.0 °F 21.2 °F 80% 29.70 in 0.5 mi NNW 5.8 mph - N/A   Overcast
5:35 AM 26.6 °F 20.0 °F 23.0 °F 86% 29.70 in 1.2 mi NNW 5.8 mph - N/A   Overcast
5:55 AM 26.6 °F 18.2 °F 23.0 °F 86% 29.70 in 3.0 mi NNW 8.1 mph - N/A   Overcast
6:15 AM 26.6 °F 19.1 °F 21.2 °F 80% 29.70 in 1.8 mi NNW 6.9 mph - N/A   Overcast
6:35 AM 26.6 °F 20.0 °F 21.2 °F 80% 29.71 in 2.0 mi NW 5.8 mph - N/A   Overcast
6:55 AM 26.6 °F 20.0 °F 21.2 °F 80% 29.71 in 5.0 mi WNW 5.8 mph - N/A   Overcast
7:15 AM 26.6 °F 18.2 °F 21.2 °F 80% 29.71 in 1.8 mi WNW 8.1 mph - N/A   Overcast
7:35 AM 26.6 °F 16.2 °F 23.0 °F 86% 29.72 in 0.8 mi West 11.5 mph - N/A   Overcast
7:55 AM 26.6 °F 15.2 °F 21.2 °F 80% 29.72 in 0.2 mi West 13.8 mph - N/A   Overcast
8:15 AM 24.8 °F 13.4 °F 21.2 °F 86% 29.72 in 0.2 mi West 12.7 mph - N/A   Overcast
8:35 AM 24.8 °F 11.1 °F 21.2 °F 86% 29.73 in 0.2 mi West 18.4 mph - N/A   Overcast
8:55 AM 24.8 °F 13.4 °F 19.4 °F 80% 29.74 in 0.2 mi West 12.7 mph - N/A   Overcast
9:15 AM 24.8 °F 16.1 °F 19.4 °F 80% 29.74 in 0.2 mi West 8.1 mph - N/A   Overcast
9:35 AM 24.8 °F 16.1 °F 19.4 °F 80% 29.74 in 0.2 mi West 8.1 mph - N/A   Overcast
9:55 AM 24.8 °F 14.6 °F 21.2 °F 86% 29.74 in 0.5 mi WSW 10.4 mph - N/A   Overcast
10:15 AM 26.6 °F 19.1 °F 21.2 °F 80% 29.74 in 0.8 mi NNW 6.9 mph - N/A   Overcast
10:35 AM 28.4 °F 19.7 °F 23.0 °F 80% 29.75 in 0.8 mi North 9.2 mph - N/A   Overcast
10:55 AM 28.4 °F 19.7 °F 24.8 °F 86% 29.75 in 0.8 mi North 9.2 mph - N/A   Overcast
11:15 AM 28.4 °F 19.7 °F 23.0 °F 80% 29.76 in 1.0 mi North 9.2 mph - N/A   Overcast
11:35 AM 28.4 °F 18.0 °F 23.0 °F 80% 29.77 in 1.5 mi North 12.7 mph - N/A   Overcast
11:55 AM 28.4 °F 19.1 °F 23.0 °F 80% 29.77 in 0.8 mi North 10.4 mph - N/A   Overcast
12:15 PM 30.2 °F 21.3 °F 24.8 °F 80% 29.77 in 0.5 mi North 10.4 mph - N/A   Overcast
12:35 PM 30.2 °F 20.8 °F 23.0 °F 75% 29.78 in 3.0 mi North 11.5 mph - N/A   Overcast
12:55 PM 30.2 °F 21.3 °F 21.2 °F 69% 29.78 in 10.0 mi NNW 10.4 mph - N/A   Overcast
1:15 PM 28.4 °F 19.1 °F 21.2 °F 74% 29.79 in 2.0 mi North 10.4 mph - N/A   Overcast
1:35 PM 30.2 °F 20.8 °F 19.4 °F 64% 29.79 in 7.0 mi NNW 11.5 mph - N/A   Mostly Cloudy
1:55 PM 30.2 °F 22.6 °F 19.4 °F 64% 29.80 in 10.0 mi North 8.1 mph - N/A   Overcast
2:35 PM 30.2 °F 20.8 °F 19.4 °F 64% 29.81 in 10.0 mi NNW 11.5 mph - N/A   Mostly Cloudy
2:55 PM 30.2 °F 20.8 °F 19.4 °F 64% 29.81 in 10.0 mi North 11.5 mph - 0.01 in   Mostly Cloudy
3:15 PM 30.2 °F 21.9 °F 19.4 °F 64% 29.81 in 10.0 mi NNW 9.2 mph 17.3 mph 0.02 in   Mostly Cloudy
3:35 PM 30.2 °F 19.3 °F 19.4 °F 64% 29.82 in 10.0 mi NNW 15.0 mph 18.4 mph 0.02 in   Mostly Cloudy
3:55 PM 30.2 °F 20.8 °F 19.4 °F 64% 29.83 in 10.0 mi NW 11.5 mph - 0.02 in   Overcast
4:15 PM 30.2 °F 22.6 °F 19.4 °F 64% 29.83 in 10.0 mi NNW 8.1 mph - 0.01 in   Mostly Cloudy
4:35 PM 30.2 °F 20.8 °F 17.6 °F 60% 29.83 in 10.0 mi NNW 11.5 mph - 0.01 in   Mostly Cloudy
4:55 PM 30.2 °F 23.4 °F 19.4 °F 64% 29.83 in 10.0 mi NW 6.9 mph - 0.01 in   Mostly Cloudy
5:15 PM 30.2 °F 22.6 °F 17.6 °F 60% 29.83 in 10.0 mi NNW 8.1 mph - N/A   Partly Cloudy
5:35 PM 30.2 °F 23.4 °F 17.6 °F 60% 29.84 in 10.0 mi NNW 6.9 mph - 0.01 in   Partly Cloudy
5:55 PM 30.2 °F 22.6 °F 15.8 °F 55% 29.84 in 10.0 mi NNW 8.1 mph - 0.01 in   Clear
6:15 PM 30.2 °F 24.3 °F 15.8 °F 55% 29.85 in 10.0 mi North 5.8 mph - N/A   Clear
6:35 PM 30.2 °F 22.6 °F 17.6 °F 60% 29.85 in 10.0 mi NNW 8.1 mph - N/A   Clear
7:15 PM 30.2 °F 25.4 °F 15.8 °F 55% 29.86 in 10.0 mi NNW 4.6 mph - N/A   Clear
7:35 PM 30.2 °F 26.7 °F 17.6 °F 60% 29.86 in 10.0 mi NNW 3.5 mph - N/A   Clear
7:55 PM 28.4 °F 24.6 °F 17.6 °F 64% 29.86 in 10.0 mi NW 3.5 mph - N/A   Clear
8:15 PM 28.4 °F - 17.6 °F 64% 29.87 in 10.0 mi Calm Calm - N/A   Clear
8:55 PM 26.6 °F - 17.6 °F 69% 29.88 in 10.0 mi Calm Calm - N/A   Clear